Location: Ondrup
(55.9477°N, 10.1225°E)
Time: 21:18:11
(UTC+00:00)

Daily predictions for brighter satellites

Satellite Brightness Start Highest point End
(mag) Time Altitude Azimuth Time Altitude Azimuth Time Altitude Azimuth
USA 267 3.4 20:51:16 10° ESE 20:57:50 71° SSW 21:04:25 10° WNW
Cosmos 1709 Rocket 4.2 20:53:39 10° SSW 20:59:59 84° WNW 21:06:25 10° N
Meteor 1-11 4.3 21:00:39 10° S 21:06:18 87° ESE 21:12:05 10° NNE
Cosmos 1408 4.4 21:04:18 10° SE 21:06:45 18° E 21:09:12 10° NE
SL-16 R/B 4.2 21:06:58 10° ESE 21:08:34 11° E 21:10:10 10° ENE
Cosmos 2221 2.6 21:05:58 10° N 21:10:23 83° ENE 21:14:46 10° SSE
Lacrosse 5 rocket 1.5 21:10:59 10° W 21:15:13 76° N 21:19:11 10° E
Cosmos 2184 Rocket 4.2 21:10:09 10° S 21:16:15 59° E 21:22:28 10° NNE
NOSS 7 (D) 4.4 21:13:46 10° WSW 21:16:28 60° NW 21:19:06 10° NE
SAR-Lupe-2 4.0 21:13:06 10° NNE 21:16:42 67° WNW 21:20:16 10° SSW
Resurs 01 Rocket 4.2 21:15:24 10° WSW 21:17:49 14° W 21:20:15 10° NW
Terra 2.2 21:15:46 10° S 21:20:30 65° WSW 21:25:16 10° NNW
TSX-5 4.1 21:22:54 10° NW 21:26:11 48° WSW 21:30:02 10° SSE
NOSS 3-4 (A) 3.9 21:21:30 10° NW 21:28:15 72° SW 21:35:45 10° SE
NOSS 3-4 (C) 3.9 21:21:37 10° NW 21:28:22 73° SW 21:35:53 10° SE
Cosmos 2058 3.3 21:27:52 10° S 21:31:52 49° E 21:35:53 10° NNE
Cosmos 2322 Rocket 4.0 21:28:05 10° WSW 21:33:17 37° NW 21:38:31 10° NNE
Cosmos 1624 Rocket 4.1 21:30:46 10° NNW 21:36:03 76° ENE 21:41:12 10° SSE
NOSS 3-3 (A) 4.0 21:35:41 10° SW 21:41:37 67° SE 21:48:27 10° NE
NOSS 3-3 (C) 4.0 21:35:46 10° SSW 21:41:44 66° SE 21:48:35 10° NE
Cosmos 1825 3.3 21:39:57 11° SSE 21:43:01 29° E 21:46:20 10° NNE
Cosmos 2369 Rocket 3.5 21:38:45 10° NNW 21:43:56 37° NE 21:49:06 10° ESE
JB-3 4.3 21:40:05 10° NNE 21:43:57 71° ESE 21:47:46 10° S
Aureole 2 Rocket 2.4 21:43:30 10° NNW 21:46:15 53° ENE 21:48:50 12° SE
Cosmos 1980 4.0 21:42:56 10° S 21:48:20 48° ESE 21:53:45 10° NE
Cosmos 1538 Rocket 4.2 21:43:35 10° SSW 21:48:58 78° WNW 21:54:18 10° NNE
Nadezhda 3 Rocket 4.1 21:42:37 10° NNW 21:49:03 87° W 21:55:18 10° S
Meteor 2-17 Rocket 4.4 21:44:20 10° S 21:50:24 81° E 21:56:29 10° NNE
COSMOS 2455 3.3 21:45:17 10° NW 21:51:18 62° NE 21:57:18 10° ESE
Cosmos 1076 Rocket 3.5 21:47:37 10° S 21:51:53 68° E 21:56:09 10° NNE
COSMOS 2428 2.8 21:49:58 10° SW 21:55:40 84° WNW 22:01:25 10° NE
ATLAS 2AS CENTAUR R/B 3.1 21:48:32 10° NW 21:56:04 60° SW 22:02:39 12° SSE
Cosmos 1933 4.4 21:52:23 10° N 21:56:08 36° ENE 21:59:44 11° SE
Cosmos 2154 Rocket 4.1 21:50:06 10° S 21:56:16 73° E 22:02:29 10° NNE
Thor Agena Rocket 3.9 21:51:56 10° NNE 21:56:54 47° E 22:01:29 12° S
ATLAS CENTAUR R/B 3.5 21:56:42 10° W 21:58:00 12° WSW 21:59:18 10° SW
Cosmos 2322 4.4 21:52:54 10° SW 21:58:34 59° NW 22:04:14 10° NNE
Cosmos 2151 3.7 21:55:43 12° SSE 21:59:17 39° E 22:03:17 10° NNE
Cosmos 2341 Rocket 4.4 21:55:15 11° SSE 22:00:54 49° E 22:06:51 10° NNE
Helios 1A 4.5 21:58:06 10° ESE 22:01:41 29° ENE 22:05:17 10° N
BREEZE-M DEB (TANK) 3.0 21:57:55 10° W 22:01:45 25° SSW 22:03:23 15° SSE
Cosmos 2074 Rocket 4.2 21:56:05 10° SSW 22:02:19 74° WNW 22:08:33 10° N
Cosmos 1371 Rocket 4.2 21:58:54 10° NNW 22:04:07 66° WSW 22:08:51 13° SSE
Genesis I 4.0 22:00:58 10° S 22:04:25 32° SE 22:07:54 10° ENE
USA 215 3.3 21:59:12 10° ENE 22:05:40 57° SSE 22:12:06 10° SW
SL-4 R/B 2.9 22:04:43 10° ESE 22:06:02 15° ENE 22:07:21 10° NNE
Cosmos 2237 Rocket 2.3 22:00:44 10° SSW 22:06:18 59° ESE 22:11:56 10° NE
Cosmos 2219 Rocket 2.6 22:01:42 10° SW 22:07:17 67° NW 22:12:55 10° NNE
Cosmos 2360 Rocket 3.9 22:05:16 10° WSW 22:10:29 36° NW 22:15:44 10° NNE
Spot 4 3.9 22:06:50 13° SSE 22:11:09 78° WSW 22:15:57 10° NNW
Cosmos 1151 Rocket 3.4 22:07:45 10° N 22:12:03 54° ENE 22:15:44 13° SSE
Cosmos 2344 3.9 22:06:33 10° SSW 22:13:32 45° ESE 22:21:15 10° NE
Cosmos 1782 4.4 22:10:24 10° N 22:13:48 27° ENE 22:17:12 10° SE
Cosmos 158 Rocket 3.9 22:09:50 10° SSW 22:14:40 65° ESE 22:19:34 10° NNE
GEOS 3 Rocket 4.0 22:10:29 10° NE 22:15:52 72° NW 22:21:15 10° WSW
SL-8 Rocket 4.5 22:11:02 13° SSE 22:16:22 48° E 22:22:15 10° NNE
CZ-4C R/B 3.2 22:10:46 10° NW 22:17:19 68° NNE 22:25:10 10° ESE
Cosmos 332 Rocket 4.1 22:13:23 10° NNW 22:18:12 63° ENE 22:22:47 11° SE
Cosmos 2112 Rocket 4.1 22:12:53 10° SSW 22:18:12 67° ESE 22:23:32 10° NNE
Cosmos 1420 Rocket 4.1 22:13:51 10° NNW 22:19:10 88° ENE 22:23:55 13° SSE
ATLAS 5 CENTAUR R/B 3.1 22:18:41 10° WNW 22:20:31 26° N 22:22:52 10° ENE
Cosmos 2333 Rocket 3.0 22:15:58 10° SW 22:21:35 56° NW 22:27:16 10° NNE
Iridium 2 4.2 22:18:42 10° NNW 22:22:28 56° W 22:25:48 13° SSW
ALOS 2 2.7 22:18:57 14° SSE 22:22:43 77° ENE 22:27:08 10° NNW
EO 1 Del DPAF 3.2 22:22:57 10° NNE 22:26:43 72° ESE 22:29:55 14° S
Cosmos 2056 Rocket 4.1 22:22:38 10° NW 22:27:53 52° WSW 22:32:26 14° S
GP-B 3.3 22:25:04 10° N 22:29:30 61° E 22:33:05 15° SSE
Cosmos 1892 3.6 22:27:02 10° SSW 22:30:40 45° WNW 22:34:23 10° N
NOSS 0 Rocket 4.0 22:25:21 10° SW 22:31:31 88° WNW 22:37:45 10° NE
Cosmos 1606 2.7 22:30:28 10° NNW 22:34:22 81° W 22:37:25 16° S
Cosmos 1633 4.3 22:32:54 12° SE 22:35:19 21° E 22:38:08 10° NE
Cosmos 2278 Rocket 3.8 22:31:30 10° NW 22:35:54 24° WSW 22:40:17 10° SSW
RESURS DK-1 3.4 22:32:07 10° NNW 22:36:07 44° NE 22:40:06 10° ESE
ATLAS 5 CENTAUR R/B 3.1 22:34:44 10° W 22:39:05 45° NNW 22:44:09 10° NE
Cosmos 2297 4.0 22:33:28 10° NW 22:39:07 59° WSW 22:43:52 15° SSE
Cosmos 1943 Rocket 2.3 22:34:19 10° NW 22:40:03 85° NE 22:45:29 11° SE
Cosmos 1408 3.2 22:37:57 10° SSW 22:41:25 50° WNW 22:44:56 10° N
USA 267 4.1 22:36:39 14° SSE 22:41:35 33° SW 22:47:25 10° WNW
Cosmos 44 3.7 22:40:50 15° S 22:44:02 37° SE 22:48:09 10° ENE
Gbstr 26 Del rocket 4.5 22:44:20 14° SSE 22:44:44 15° SE 22:47:02 10° ESE
Cosmos 1680 Rocket 3.8 22:40:57 10° SW 22:46:17 74° WNW 22:51:39 10° NNE
Cosmos 371 Rocket 3.5 22:42:38 10° NNW 22:47:28 65° WSW 22:51:21 16° SSE
SL-16 R/B 2.5 22:46:35 13° S 22:51:24 52° ESE 22:56:57 10° NE
APEX 2.7 22:49:36 10° NW 22:52:17 50° WSW 22:53:52 21° S
Cosmos 405 3.4 22:49:56 10° N 22:53:28 56° ENE 22:56:11 16° SSE
IRIDIUM 104 4.4 22:49:58 15° S 22:54:20 80° E 22:59:35 10° N
Lacrosse 5 rocket 1.2 22:50:21 10° WNW 22:54:24 66° SSW 22:58:13 10° ESE
CREW DRAGON DEMO-1 DEB 3.9 22:53:16 16° SSW 22:54:52 24° SSE 22:57:25 10° ESE
Cosmos 1452 Rocket 3.6 22:49:40 10° NNW 22:54:57 74° WSW 22:59:20 15° SSE
Cosmos 1515 Rocket 3.5 22:52:18 10° N 22:56:41 83° E 23:00:08 16° SSE
Cosmos 1110 Rocket 4.4 22:52:22 10° NNW 22:57:38 62° ENE 23:02:53 10° SE
Terra 4.3 22:57:28 10° WSW 22:59:13 12° W 23:00:58 10° WNW
Cosmos 1328 Rocket 3.8 22:58:32 10° NNW 23:02:48 58° W 23:06:06 16° S
IRIDIUM 114 4.3 22:59:06 15° S 23:03:30 88° W 23:08:46 10° N
Cosmos 1766 Rocket 3.6 23:01:32 14° SSW 23:05:14 79° WNW 23:09:42 10° N
Okean 3 Rocket 3.9 23:07:35 13° SSW 23:11:31 63° WNW 23:15:57 10° N
IRIDIUM 103 4.4 23:08:14 15° S 23:12:39 77° W 23:17:55 10° N
EP 3 3.4 23:15:25 26° SW 23:16:21 66° SE 23:18:23 10° ENE
Meteor 2-3 Rocket 3.8 23:12:54 15° S 23:17:40 78° ESE 23:23:25 10° NNE
Cosmos 2228 Rocket 3.2 23:13:04 10° N 23:17:41 77° ENE 23:21:26 15° SSE
Resurs 1-4 Rocket 4.4 23:16:21 10° ENE 23:18:22 12° E 23:20:22 10° ESE
Cosmos 1340 2.6 23:15:33 17° SSW 23:18:23 90° W 23:22:11 10° NNE
Cosmos 1825 3.5 23:15:01 10° SW 23:18:28 33° WNW 23:21:58 10° N
Aureole 2 Rocket 4.4 23:18:09 10° WNW 23:19:31 13° WSW 23:20:49 10° SW
Cosmos 2218 Rocket 4.1 23:17:43 13° SSW 23:23:25 80° WNW 23:29:45 10° N
Meteor 2-6 Rocket 4.3 23:18:16 10° NNW 23:23:48 75° ENE 23:28:38 13° SSE
Meteor 1-10 Rocket 4.5 23:19:34 10° NNW 23:25:10 67° ENE 23:30:21 12° SSE
Cosmos 2366 rocket 4.1 23:21:57 13° SSW 23:27:39 78° WNW 23:34:02 10° N
Cosmos 2369 Rocket 2.2 23:22:48 10° NW 23:28:22 67° WSW 23:33:18 13° SSE
Cosmos 304 Rocket 4.1 23:26:35 10° NW 23:31:19 54° WSW 23:35:00 16° S
Cosmos 1743 Rocket 3.6 23:29:40 17° S 23:32:57 69° E 23:37:18 10° NNE
Sich 1 4.4 23:29:53 11° SSE 23:33:20 29° E 23:37:05 10° NNE
SL-4 R/B 2.3 23:33:31 16° WSW 23:34:09 19° W 23:35:44 10° NW
Cosmos 2123 Rocket 4.4 23:28:29 10° N 23:34:39 60° ENE 23:40:45 10° SSE
Cosmos 1821 Rocket 4.2 23:30:58 14° S 23:36:05 61° E 23:42:06 10° NNE
YAOGAN 11 4.4 23:33:15 17° S 23:36:33 56° WSW 23:40:57 10° NNW
Cosmos 2151 4.5 23:32:51 10° SW 23:36:40 31° WNW 23:40:30 10° N
Helios 1A 3.6 23:34:08 17° SSW 23:37:06 44° W 23:41:07 10° NNW
COSMOS 2455 3.4 23:31:28 10° NW 23:37:08 42° WSW 23:41:47 15° S
Cosmos 1656 Rocket 3.6 23:33:06 10° NW 23:38:35 87° ENE 23:44:01 10° SE
Genesis I 3.9 23:38:00 10° WSW 23:41:51 56° NNW 23:45:43 10° NE
ATLAS 2AS CENTAUR R/B 4.4 23:40:52 10° WNW 23:45:32 18° WSW 23:50:00 10° SW
Cosmos 1812 2.9 23:44:20 10° N 23:48:13 72° ENE 23:51:25 14° SSE
USA 215 3.3 23:42:24 10° ENE 23:49:02 88° NNW 23:55:37 10° W
CRYOSAT 2 4.4 23:44:53 10° N 23:49:47 77° E 23:53:46 15° S
Cosmos 1782 3.6 23:46:32 10° NNW 23:50:17 40° W 23:53:04 16° SSW
Cosmos 2237 Rocket 3.5 23:45:18 10° WSW 23:50:41 41° NW 23:56:05 10° NNE
CZ-2D R/B 4.0 23:48:06 10° NE 23:52:00 20° E 23:55:54 10° SE
Cosmos 2219 Rocket 4.4 23:47:41 10° W 23:52:16 25° NNW 23:56:55 10° NNE
